EDV5203 KATL-KTYS

Flight info

Callsign EDV5203
Flight time 0h 35m
Altitude 13000
Route SMKEY2 BOBBD
Aircraft CRJ9/M-SDFGIRWY/S

Departure

Time 2026-05-04 23:17
Airport Hartsfield Jackson Atlanta International Airport (KATL)

Arrival

Time 2026-05-04 23:52
Airport McGhee Tyson Airport (KTYS)
Time Latitude Longitude Altitude Speed Heading
2026-05-04 22:51 33.63792 -84.43200 1033 ft 0 kts 296°
2026-05-04 23:06 33.63789 -84.43193 1033 ft 4 kts 297°
2026-05-04 23:06 33.63779 -84.43168 1033 ft 2 kts 295°
2026-05-04 23:06 33.63766 -84.43142 1033 ft 4 kts 307°
2026-05-04 23:06 33.63747 -84.43119 1032 ft 4 kts 321°
2026-05-04 23:07 33.63742 -84.43114 1032 ft 0 kts 322°
2026-05-04 23:08 33.63744 -84.43115 1032 ft 1 kts 327°
2026-05-04 23:08 33.63753 -84.43120 1032 ft 2 kts 343°
2026-05-04 23:09 33.63773 -84.43118 1033 ft 3 kts 17°
2026-05-04 23:09 33.63805 -84.43105 1033 ft 6 kts 19°
2026-05-04 23:09 33.63858 -84.43081 1033 ft 10 kts 21°
2026-05-04 23:09 33.63929 -84.43064 1033 ft 11 kts
2026-05-04 23:10 33.64010 -84.43064 1033 ft 12 kts 360°
2026-05-04 23:10 33.64093 -84.43064 1033 ft 12 kts
2026-05-04 23:10 33.64177 -84.43064 1033 ft 12 kts 360°
2026-05-04 23:10 33.64262 -84.43064 1033 ft 12 kts 360°
2026-05-04 23:11 33.64348 -84.43064 1033 ft 12 kts
2026-05-04 23:11 33.64431 -84.43050 1033 ft 11 kts 31°
2026-05-04 23:11 33.64459 -84.42978 1033 ft 9 kts 86°
2026-05-04 23:11 33.64460 -84.42897 1033 ft 11 kts 90°
2026-05-04 23:12 33.64460 -84.42800 1033 ft 12 kts 88°
2026-05-04 23:12 33.64468 -84.42691 1033 ft 14 kts 87°
2026-05-04 23:12 33.64469 -84.42568 1033 ft 16 kts 90°
2026-05-04 23:12 33.64469 -84.42431 1033 ft 17 kts 90°
2026-05-04 23:13 33.64471 -84.42280 1032 ft 18 kts 79°
2026-05-04 23:13 33.64526 -84.42143 1032 ft 18 kts 61°
2026-05-04 23:13 33.64542 -84.42004 1031 ft 17 kts 89°
2026-05-04 23:13 33.64542 -84.41863 1031 ft 17 kts 90°
2026-05-04 23:14 33.64542 -84.41723 1031 ft 17 kts 90°
2026-05-04 23:14 33.64543 -84.41579 1031 ft 17 kts 90°
2026-05-04 23:14 33.64543 -84.41433 1031 ft 17 kts 90°
2026-05-04 23:14 33.64543 -84.41287 1031 ft 18 kts 90°
2026-05-04 23:15 33.64543 -84.41142 1031 ft 18 kts 90°
2026-05-04 23:15 33.64543 -84.40992 1030 ft 18 kts 90°
2026-05-04 23:15 33.64545 -84.40840 1030 ft 18 kts 81°
2026-05-04 23:15 33.64570 -84.40696 1023 ft 18 kts 89°
2026-05-04 23:16 33.64586 -84.40583 1023 ft 12 kts 49°
2026-05-04 23:16 33.64637 -84.40566 1018 ft 10 kts 356°
2026-05-04 23:16 33.64674 -84.40581 1016 ft 1 kts 308°
2026-05-04 23:16 33.64680 -84.40626 1016 ft 12 kts 268°
2026-05-04 23:17 33.64680 -84.40909 1020 ft 65 kts 270°
2026-05-04 23:17 33.64680 -84.41708 1023 ft 124 kts 270°
2026-05-04 23:17 33.64684 -84.42932 1101 ft 162 kts 270°
2026-05-04 23:17 33.64722 -84.44325 1694 ft 169 kts 271°
2026-05-04 23:18 33.64924 -84.45689 2417 ft 173 kts 294°
2026-05-04 23:18 33.65434 -84.46966 3170 ft 169 kts 293°
2026-05-04 23:18 33.65916 -84.48320 3665 ft 185 kts 291°
2026-05-04 23:18 33.66436 -84.49836 3922 ft 210 kts 291°
2026-05-04 23:19 33.67035 -84.51581 4233 ft 238 kts 291°
2026-05-04 23:19 33.67686 -84.53456 4861 ft 254 kts 291°
2026-05-04 23:19 33.68394 -84.55444 5609 ft 262 kts 297°
2026-05-04 23:19 33.69667 -84.57012 6472 ft 268 kts 332°
2026-05-04 23:20 33.71417 -84.57819 7343 ft 271 kts 342°
2026-05-04 23:20 33.73277 -84.58285 8232 ft 276 kts 354°
2026-05-04 23:20 33.75214 -84.58334 9103 ft 281 kts 359°
2026-05-04 23:20 33.77181 -84.58249 9952 ft 285 kts
2026-05-04 23:21 33.79176 -84.58136 10709 ft 289 kts
2026-05-04 23:21 33.81172 -84.57895 11447 ft 296 kts 14°
2026-05-04 23:21 33.83119 -84.56925 11898 ft 315 kts 25°
2026-05-04 23:21 33.85112 -84.55613 12180 ft 336 kts 28°
2026-05-04 23:22 33.87184 -84.54148 12560 ft 354 kts 28°
2026-05-04 23:22 33.89348 -84.52594 12826 ft 365 kts 28°
2026-05-04 23:22 33.91554 -84.51063 12924 ft 367 kts 27°
2026-05-04 23:22 33.93800 -84.49568 12957 ft 371 kts 26°
2026-05-04 23:23 33.96077 -84.48067 12975 ft 375 kts 27°
2026-05-04 23:23 33.98365 -84.46545 12985 ft 375 kts 27°
2026-05-04 23:23 34.00623 -84.45034 12979 ft 368 kts 27°
2026-05-04 23:23 34.02845 -84.43550 12975 ft 362 kts 27°
2026-05-04 23:24 34.05045 -84.42082 12990 ft 360 kts 27°
2026-05-04 23:24 34.07235 -84.40619 12988 ft 362 kts 27°
2026-05-04 23:24 34.09455 -84.39133 12990 ft 367 kts 27°
2026-05-04 23:24 34.11704 -84.37626 12994 ft 372 kts 27°
2026-05-04 23:25 34.13977 -84.36104 12997 ft 373 kts 27°
2026-05-04 23:25 34.16248 -84.34581 13002 ft 373 kts 27°
2026-05-04 23:25 34.18490 -84.33076 13004 ft 373 kts 27°
2026-05-04 23:25 34.20754 -84.31557 12999 ft 371 kts 27°
2026-05-04 23:26 34.23003 -84.30049 12997 ft 368 kts 27°
2026-05-04 23:26 34.25235 -84.28549 13003 ft 366 kts 27°
2026-05-04 23:26 34.27451 -84.27053 13003 ft 364 kts 27°
2026-05-04 23:26 34.29743 -84.25823 12987 ft 360 kts 14°
2026-05-04 23:27 34.32196 -84.25154 13004 ft 363 kts
2026-05-04 23:27 34.34715 -84.24658 13010 ft 370 kts
2026-05-04 23:27 34.37277 -84.24158 13012 ft 374 kts
2026-05-04 23:27 34.39854 -84.23633 13008 ft 376 kts
2026-05-04 23:28 34.42426 -84.23043 13002 ft 377 kts
2026-05-04 23:28 34.45005 -84.22442 12997 ft 378 kts
2026-05-04 23:28 34.47555 -84.21845 12981 ft 368 kts
2026-05-04 23:28 34.50042 -84.21261 12980 ft 362 kts
2026-05-04 23:29 34.52480 -84.20683 12978 ft 361 kts
2026-05-04 23:29 34.54956 -84.20103 12964 ft 362 kts
2026-05-04 23:29 34.57435 -84.19522 12973 ft 363 kts
2026-05-04 23:29 34.59920 -84.18938 12982 ft 364 kts
2026-05-04 23:30 34.62411 -84.18348 12993 ft 365 kts
2026-05-04 23:30 34.64907 -84.17761 12988 ft 365 kts
2026-05-04 23:30 34.67405 -84.17178 12996 ft 366 kts
2026-05-04 23:30 34.69906 -84.16589 12993 ft 366 kts
2026-05-04 23:31 34.72414 -84.15994 13003 ft 367 kts
2026-05-04 23:31 34.74895 -84.15413 12998 ft 367 kts
2026-05-04 23:31 34.77397 -84.14784 12996 ft 367 kts 10°
2026-05-04 23:31 34.79878 -84.14090 13007 ft 365 kts 11°
2026-05-04 23:32 34.82343 -84.13398 13004 ft 363 kts 10°
2026-05-04 23:32 34.84839 -84.12707 13011 ft 362 kts 10°
2026-05-04 23:32 34.87301 -84.12028 13011 ft 363 kts 10°
2026-05-04 23:32 34.89737 -84.11356 13009 ft 364 kts 10°
2026-05-04 23:33 34.92208 -84.10667 13018 ft 365 kts 10°
2026-05-04 23:33 34.94686 -84.09975 13009 ft 365 kts 10°
2026-05-04 23:33 34.97165 -84.09285 13000 ft 366 kts 10°
2026-05-04 23:33 34.99648 -84.08593 13008 ft 366 kts 10°
2026-05-04 23:34 35.02135 -84.07901 13000 ft 367 kts 10°
2026-05-04 23:34 35.04626 -84.07207 12989 ft 367 kts 10°
2026-05-04 23:34 35.07116 -84.06514 13000 ft 367 kts 10°
2026-05-04 23:34 35.08769 -84.06052 12996 ft 368 kts 10°
2026-05-04 23:35 35.11264 -84.05353 12986 ft 368 kts 10°
2026-05-04 23:35 35.13766 -84.04655 13000 ft 368 kts 10°
2026-05-04 23:35 35.16255 -84.03959 13016 ft 365 kts 10°
2026-05-04 23:35 35.18725 -84.03268 13052 ft 363 kts 10°
2026-05-04 23:36 35.21181 -84.02579 13047 ft 361 kts 10°
2026-05-04 23:36 35.23621 -84.01894 13053 ft 359 kts 10°
2026-05-04 23:36 35.26054 -84.01207 13064 ft 358 kts
2026-05-04 23:36 35.28483 -84.00524 13054 ft 359 kts
2026-05-04 23:37 35.30933 -83.99845 13065 ft 363 kts
2026-05-04 23:37 35.33414 -83.99147 13067 ft 368 kts 10°
2026-05-04 23:37 35.35914 -83.98441 13063 ft 368 kts 10°
2026-05-04 23:37 35.38403 -83.97745 13067 ft 367 kts
2026-05-04 23:38 35.40894 -83.97047 13052 ft 367 kts 10°
2026-05-04 23:38 35.43382 -83.96349 13029 ft 366 kts 10°
2026-05-04 23:38 35.45831 -83.95652 13014 ft 365 kts 10°
2026-05-04 23:38 35.48300 -83.94955 12267 ft 366 kts 10°
2026-05-04 23:39 35.50764 -83.94261 11596 ft 362 kts 10°
2026-05-04 23:39 35.53215 -83.93574 10922 ft 360 kts 10°
2026-05-04 23:39 35.55646 -83.92884 10264 ft 358 kts 10°
2026-05-04 23:39 35.58067 -83.92203 9611 ft 355 kts 10°
2026-05-04 23:40 35.60469 -83.91523 8856 ft 354 kts 10°
2026-05-04 23:40 35.62853 -83.90847 8202 ft 350 kts 11°
2026-05-04 23:40 35.65208 -83.90180 7525 ft 346 kts 11°
2026-05-04 23:40 35.67549 -83.89517 6823 ft 344 kts 12°
2026-05-04 23:41 35.69871 -83.88859 6119 ft 341 kts 12°
2026-05-04 23:41 35.72178 -83.88203 5362 ft 339 kts 12°
2026-05-04 23:41 35.74439 -83.87558 5060 ft 323 kts 12°
2026-05-04 23:41 35.76564 -83.86958 4974 ft 303 kts 11°
2026-05-04 23:42 35.78565 -83.86389 4853 ft 287 kts 12°
2026-05-04 23:42 35.80471 -83.85851 4715 ft 274 kts 12°
2026-05-04 23:42 35.82256 -83.85258 4565 ft 264 kts 23°
2026-05-04 23:42 35.83765 -83.83985 4269 ft 257 kts 41°
2026-05-04 23:43 35.85046 -83.82588 4162 ft 243 kts 43°
2026-05-04 23:43 35.86286 -83.81205 3865 ft 240 kts 43°
2026-05-04 23:43 35.87510 -83.79817 3638 ft 235 kts 43°
2026-05-04 23:43 35.88708 -83.78420 3565 ft 240 kts 44°
2026-05-04 23:44 35.89910 -83.77011 3531 ft 236 kts 44°
2026-05-04 23:44 35.91092 -83.75624 3506 ft 233 kts 45°
2026-05-04 23:44 35.92253 -83.74268 3499 ft 224 kts 44°
2026-05-04 23:44 35.93415 -83.73074 3360 ft 213 kts 25°
2026-05-04 23:45 35.94803 -83.72730 3135 ft 201 kts 348°
2026-05-04 23:45 35.96006 -83.73436 2919 ft 186 kts 308°
2026-05-04 23:45 35.96483 -83.74759 2819 ft 165 kts 264°
2026-05-04 23:45 35.96318 -83.76039 3011 ft 141 kts 256°
2026-05-04 23:46 35.96138 -83.77225 2908 ft 139 kts 256°
2026-05-04 23:46 35.95936 -83.78350 2839 ft 129 kts 255°
2026-05-04 23:46 35.95752 -83.79384 2796 ft 123 kts 253°
2026-05-04 23:46 35.95554 -83.80449 2836 ft 137 kts 248°
2026-05-04 23:47 35.95033 -83.81367 2814 ft 117 kts 227°
2026-05-04 23:47 35.94515 -83.82123 2768 ft 116 kts 228°
2026-05-04 23:47 35.93997 -83.82893 2788 ft 118 kts 228°
2026-05-04 23:47 35.93452 -83.83688 2799 ft 128 kts 229°
2026-05-04 23:48 35.92844 -83.84563 2812 ft 132 kts 228°
2026-05-04 23:48 35.92239 -83.85386 2801 ft 130 kts 227°
2026-05-04 23:48 35.91613 -83.86201 2791 ft 132 kts 225°
2026-05-04 23:48 35.90971 -83.87019 2793 ft 134 kts 224°
2026-05-04 23:49 35.90310 -83.87839 2800 ft 136 kts 223°
2026-05-04 23:49 35.89650 -83.88632 2793 ft 123 kts 224°
2026-05-04 23:49 35.89036 -83.89375 2758 ft 126 kts 224°
2026-05-04 23:49 35.88412 -83.90151 2720 ft 129 kts 224°
2026-05-04 23:50 35.87772 -83.90929 2691 ft 130 kts 224°
2026-05-04 23:50 35.87097 -83.91736 2448 ft 135 kts 225°
2026-05-04 23:50 35.86433 -83.92556 2261 ft 135 kts 224°
2026-05-04 23:50 35.85792 -83.93356 2139 ft 131 kts 224°
2026-05-04 23:51 35.85127 -83.94140 1961 ft 134 kts 225°
2026-05-04 23:51 35.84469 -83.94965 1754 ft 137 kts 225°
2026-05-04 23:51 35.83786 -83.95793 1584 ft 136 kts 226°
2026-05-04 23:51 35.83106 -83.96617 1401 ft 140 kts 226°
2026-05-04 23:52 35.82404 -83.97468 1223 ft 143 kts 227°
2026-05-04 23:52 35.81742 -83.98279 990 ft 127 kts 226°
2026-05-04 23:52 35.81228 -83.98915 959 ft 69 kts 225°
2026-05-04 23:52 35.80998 -83.99195 958 ft 32 kts 225°
2026-05-04 23:53 35.80837 -83.99390 959 ft 33 kts 224°
2026-05-04 23:53 35.80723 -83.99522 957 ft 12 kts 210°
2026-05-04 23:53 35.80659 -83.99503 960 ft 8 kts 126°
2026-05-04 23:53 35.80641 -83.99449 964 ft 7 kts 109°
2026-05-04 23:54 35.80617 -83.99399 963 ft 7 kts 129°
2026-05-04 23:54 35.80577 -83.99339 964 ft 11 kts 128°
2026-05-04 23:54 35.80536 -83.99275 966 ft 3 kts 129°
2026-05-04 23:54 35.80527 -83.99248 963 ft 2 kts 77°
2026-05-04 23:55 35.80536 -83.99231 965 ft 4 kts 51°
2026-05-04 23:55 35.80561 -83.99194 964 ft 2 kts 50°
2026-05-04 23:55 35.80569 -83.99182 966 ft 0 kts 50°